Sidney-Richland, MT

11:10 AM MDT on July 28, 2017 (GMT -0600)
Sidney-Richland Municipal

Weather History for KSDY - November, 2013

Change the Weather History Date:

Monday, November 11, 2013

  Actual Average Record
Temperature  
Mean Temperature 15 °F -  
Max Temperature 24 °F 39 °F 64 °F (1999)
Min Temperature 6 °F 18 °F -10 °F (1911)
Degree Days  
Heating Degree Days 50    
Moisture  
Dew Point 7 °F    
Average Humidity 69    
Maximum Humidity 86    
Minimum Humidity 46    
Precipitation  
Precipitation 0.00 in - - ()
Sea Level Pressure  
Sea Level Pressure 30.58 in    
Wind  
Wind Speed 5 mph (SW)    
Max Wind Speed 10 mph    
Max Gust Speed -    
Visibility 10 miles    
Events      
Averages and records for this station are not official NWS values.
T = Trace of Precipitation, MM = Missing Value Source: NWS Daily Summary

Daily Weather History Graph

Daily Weather History Graph

Search for Another Location

Airport or City:

Trip Planner

Search our weather history database for the weather conditions in past years. The results will help you decide how hot, cold, wet, or windy it might be!

Date:

Astronomy

Nov. 11, 2013 Rise Set
Actual Time 6:56 AM MST 4:24 PM MST
Civil Twilight 6:23 AM MST 4:57 PM MST
Nautical Twilight 5:46 AM MST 5:34 PM MST
Astronomical Twilight 5:09 AM MST 6:11 PM MST
Moon 1:29 PM MST (11/11) 12:18 AM MST (11/11)
Length of Visible Light 10h 34m
Length of Day
9h 27m
Waxing Gibbous, 67% of the Moon is Illuminated
Nov 11
Waxing Gibbous
Nov 17
Full
Nov 25
Last Quarter
Dec 2
New
Dec 9
First Quarter

Hourly Weather History & Observations

Time (MST) Temp. Windchill Dew Point Humidity Pressure Visibility Wind Dir Wind Speed Gust Speed Precip Events Conditions
12:15 AM 19.4 °F 14.3 °F 6.8 °F 58% 30.47 in 10.0 mi North 3.5 mph - N/A   Overcast
12:55 AM 17.6 °F 9.3 °F 6.8 °F 63% 30.47 in 10.0 mi NNE 5.8 mph - N/A   Scattered Clouds
1:15 AM 19.4 °F 11.5 °F 5.0 °F 54% 30.48 in 10.0 mi NE 5.8 mph - N/A   Clear
1:35 AM 17.6 °F 8.2 °F 3.2 °F 53% 30.48 in 10.0 mi NNE 6.9 mph - N/A   Clear
1:55 AM 17.6 °F 8.2 °F 5.0 °F 58% 30.49 in 10.0 mi NNE 6.9 mph - N/A   Mostly Cloudy
2:15 AM 17.6 °F 7.3 °F 6.8 °F 63% 30.50 in 10.0 mi NNE 8.1 mph - N/A   Overcast
2:35 AM 15.8 °F 3.4 °F 6.8 °F 68% 30.50 in 10.0 mi NNE 10.4 mph - N/A   Mostly Cloudy
2:55 AM 15.8 °F 7.2 °F 6.8 °F 68% 30.51 in 10.0 mi NNE 5.8 mph - N/A   Partly Cloudy
3:15 AM 15.8 °F 5.1 °F 6.8 °F 68% 30.51 in 10.0 mi NNE 8.1 mph - N/A   Clear
3:35 AM 14.0 °F 5.1 °F 5.0 °F 67% 30.52 in 10.0 mi North 5.8 mph - N/A   Clear
3:55 AM 14.0 °F 3.9 °F 5.0 °F 67% 30.52 in 10.0 mi North 6.9 mph - N/A   Clear
4:15 AM 12.2 °F 2.9 °F 5.0 °F 73% 30.54 in 10.0 mi North 5.8 mph - N/A   Clear
4:35 AM 12.2 °F 2.9 °F 3.2 °F 67% 30.54 in 10.0 mi NNE 5.8 mph - N/A   Clear
4:55 AM 12.2 °F 4.3 °F 5.0 °F 73% 30.54 in 10.0 mi North 4.6 mph - N/A   Clear
5:15 AM 12.2 °F 1.7 °F 6.8 °F 79% 30.56 in 10.0 mi North 6.9 mph - N/A   Clear
5:35 AM 10.4 °F 0.8 °F 3.2 °F 73% 30.56 in 10.0 mi North 5.8 mph - N/A   Clear
5:55 AM 10.4 °F 0.8 °F 5.0 °F 79% 30.56 in 10.0 mi North 5.8 mph - N/A   Clear
6:35 AM 8.6 °F 0.1 °F 3.2 °F 79% 30.59 in 10.0 mi NNE 4.6 mph - N/A   Clear
6:55 AM 8.6 °F 2.0 °F 3.2 °F 79% 30.59 in 10.0 mi North 3.5 mph - N/A   Clear
7:15 AM 6.8 °F -0.1 °F 1.4 °F 79% 30.60 in 10.0 mi NNW 3.5 mph - N/A   Clear
7:35 AM 6.8 °F -0.1 °F 3.2 °F 85% 30.61 in 10.0 mi NNW 3.5 mph - N/A   Clear
7:55 AM 8.6 °F - 3.2 °F 79% 30.62 in 10.0 mi Calm Calm - N/A   Clear
8:15 AM 10.4 °F 2.2 °F 6.8 °F 85% 30.62 in 10.0 mi NNE 4.6 mph - N/A   Clear
8:35 AM 12.2 °F 6.1 °F 5.0 °F 73% 30.62 in 10.0 mi North 3.5 mph - N/A   Clear
9:15 AM 15.8 °F - 6.8 °F 68% 30.63 in 10.0 mi Calm Calm - N/A   Clear
9:35 AM 15.8 °F - 3.2 °F 58% 30.64 in 10.0 mi Calm Calm - N/A   Clear
10:15 AM 15.8 °F 8.6 °F 8.6 °F 73% 30.64 in 10.0 mi South 4.6 mph - N/A   Clear
10:35 AM 17.6 °F 10.7 °F 6.8 °F 63% 30.64 in 10.0 mi South 4.6 mph - N/A   Clear
11:15 AM 19.4 °F 11.5 °F 8.6 °F 63% 30.63 in 10.0 mi South 5.8 mph - N/A   Clear
11:35 AM 19.4 °F 12.8 °F 8.6 °F 63% 30.63 in 10.0 mi SSW 4.6 mph - N/A   Clear
11:55 AM 19.4 °F 10.4 °F 6.8 °F 58% 30.63 in 10.0 mi SSW 6.9 mph - N/A   Clear
12:15 PM 21.2 °F 12.6 °F 8.6 °F 58% 30.62 in 10.0 mi South 6.9 mph - N/A   Clear
12:35 PM 21.2 °F 12.6 °F 6.8 °F 54% 30.62 in 10.0 mi SSW 6.9 mph - N/A   Clear
12:55 PM 23.0 °F 17.0 °F 8.6 °F 54% 30.62 in 10.0 mi South 4.6 mph - N/A   Clear
1:15 PM 23.0 °F 18.4 °F 5.0 °F 46% 30.62 in 10.0 mi SSW 3.5 mph - N/A   Clear
1:35 PM 23.0 °F 14.7 °F 6.8 °F 50% 30.62 in 10.0 mi SSW 6.9 mph - N/A   Clear
1:55 PM 23.0 °F 15.8 °F 6.8 °F 50% 30.61 in 10.0 mi SSW 5.8 mph - N/A   Clear
2:15 PM 24.8 °F 16.1 °F 8.6 °F 50% 30.61 in 10.0 mi SSW 8.1 mph - N/A   Clear
2:35 PM 23.0 °F 13.9 °F 8.6 °F 54% 30.61 in 10.0 mi SSW 8.1 mph - N/A   Clear
2:55 PM 23.0 °F 13.9 °F 8.6 °F 54% 30.61 in 10.0 mi SSW 8.1 mph - N/A   Clear
3:15 PM 23.0 °F 14.7 °F 10.4 °F 59% 30.61 in 10.0 mi SSW 6.9 mph - N/A   Clear
3:55 PM 21.2 °F 14.9 °F 10.4 °F 63% 30.61 in 10.0 mi SSW 4.6 mph - N/A   Clear
4:15 PM 21.2 °F 13.6 °F 8.6 °F 58% 30.61 in 10.0 mi SSW 5.8 mph - N/A   Clear
4:35 PM 19.4 °F 11.5 °F 10.4 °F 68% 30.62 in 10.0 mi SW 5.8 mph - N/A   Clear
4:55 PM 17.6 °F 9.3 °F 10.4 °F 73% 30.62 in 10.0 mi SW 5.8 mph - N/A   Clear
5:15 PM 17.6 °F 10.7 °F 8.6 °F 68% 30.62 in 10.0 mi SW 4.6 mph - N/A   Clear
5:35 PM 17.6 °F 9.3 °F 10.4 °F 73% 30.61 in 10.0 mi SW 5.8 mph - N/A   Clear
5:55 PM 15.8 °F 8.6 °F 10.4 °F 79% 30.61 in 10.0 mi SW 4.6 mph - N/A   Clear
6:15 PM 15.8 °F 7.2 °F 8.6 °F 73% 30.60 in 10.0 mi SSW 5.8 mph - N/A   Clear
6:35 PM 15.8 °F 10.2 °F 8.6 °F 73% 30.62 in 10.0 mi SSW 3.5 mph - N/A   Clear
6:55 PM 15.8 °F - 6.8 °F 68% 30.62 in 10.0 mi Calm Calm - N/A   Clear
7:15 PM 12.2 °F - 6.8 °F 79% 30.61 in 10.0 mi Calm Calm - N/A   Clear
7:35 PM 12.2 °F - 8.6 °F 85% 30.61 in 10.0 mi Calm Calm - N/A   Clear
8:15 PM 12.2 °F 6.1 °F 6.8 °F 79% 30.61 in 10.0 mi SW 3.5 mph - N/A   Clear
8:35 PM 12.2 °F 6.1 °F 8.6 °F 85% 30.60 in 10.0 mi SSW 3.5 mph - N/A   Clear
8:55 PM 14.0 °F 8.2 °F 10.4 °F 86% 30.60 in 10.0 mi SW 3.5 mph - N/A   Clear
9:15 PM 12.2 °F 4.3 °F 6.8 °F 79% 30.59 in 10.0 mi SSW 4.6 mph - N/A   Clear
9:35 PM 10.4 °F 2.2 °F 5.0 °F 79% 30.59 in 10.0 mi South 4.6 mph - N/A   Clear
9:55 PM 10.4 °F 4.0 °F 5.0 °F 79% 30.59 in 10.0 mi South 3.5 mph - N/A   Clear
10:15 PM 10.4 °F - 5.0 °F 79% 30.59 in 10.0 mi Calm Calm - N/A   Clear
10:35 PM 10.4 °F - 6.8 °F 85% 30.58 in 10.0 mi Calm Calm - N/A   Clear
10:55 PM 10.4 °F 2.2 °F 6.8 °F 85% 30.58 in 10.0 mi South 4.6 mph - N/A   Clear
11:15 PM 10.4 °F 2.2 °F 5.0 °F 79% 30.57 in 10.0 mi SSW 4.6 mph - N/A   Clear
11:35 PM 10.4 °F 0.8 °F 6.8 °F 85% 30.57 in 10.0 mi South 5.8 mph - N/A   Clear